FW4518 Weather Reports


Display with metric or nautical units.
time (UTC)temp
F
wind
direction
speed
MPH
gust
MPH
rain 1hr
in
rain 24hr
in
rain mn
in
humidity
%
barometer
mb
20260831044714 61 0.0 0.0 0.00 0.00 0.00 50 1016.5
20260831043714 64 17 1.0 3.0 0.00 0.00 0.00 45 1016.4
20260831042717 60 13 1.0 3.0 0.00 0.00 0.00 49 1016.4
20260831041713 61 0.0 0.0 0.00 0.00 0.00 48 1016.4
20260831040733 62 0.0 0.0 0.00 0.00 0.00 47 1016.3
20260831035714 64 0.0 0.0 0.00 0.00 0.00 45 1016.2
20260831034713 65 85 0.0 4.0 0.00 0.00 0.00 44 1016.1
20260831033713 67 0.0 0.0 0.00 0.00 0.00 42 1016.1
20260831032733 68 13 1.0 3.0 0.00 0.00 0.00 41 1015.9
20260831031714 68 14 2.0 5.0 0.00 0.00 0.00 41 1015.9
20260831030734 69 17 2.0 6.0 0.00 0.00 0.00 41 1015.8
20260831025713 70 14 3.0 7.0 0.00 0.00 0.00 40 1015.7
20260831024734 70 18 4.0 9.0 0.00 0.00 0.00 39 1015.6
20260831023713 71 2 3.0 7.0 0.00 0.00 0.00 37 1015.6
20260831022734 72 36 3.0 7.0 0.00 0.00 0.00 35 1015.6
20260831021754 73 5 5.0 10.0 0.00 0.00 0.00 35 1015.5
20260831020714 74 357 4.0 8.0 0.00 0.00 0.00 33 1015.5
20260831015714 75 18 4.0 8.0 0.00 0.00 0.00 33 1015.5
20260831014714 76 360 4.0 6.0 0.00 0.00 0.00 32 1015.4
20260831013714 77 20 3.0 7.0 0.00 0.00 0.00 30 1015.5
20260831012714 77 13 4.0 8.0 0.00 0.00 0.00 30 1015.5
20260831011714 77 45 6.0 9.0 0.00 0.00 0.00 29 1015.5
20260831005754 77 5 3.0 6.0 0.00 0.00 0.00 28 1015.6
20260831004715 78 2 5.0 8.0 0.00 0.00 0.00 27 1015.6
20260831003714 78 323 5.0 9.0 0.00 0.00 0.00 27 1015.6
20260831002734 78 3 5.0 12.0 0.00 0.00 0.00 27 1015.7
20260831001734 79 11 5.0 8.0 0.00 0.00 0.00 26 1015.8
20260831000714 78 335 6.0 10.0 0.00 0.00 0.00 26 1015.8
20260830235714 79 32 1.0 4.0 0.00 0.00 0.00 26 1015.9
20260830234714 79 359 2.0 5.0 0.00 0.00 0.00 26 1016.0
20260830233714 77 182 2.0 5.0 0.00 0.00 0.00 27 1016.2
20260830232734 78 358 4.0 7.0 0.00 0.00 0.00 26 1016.3
20260830231714 77 359 2.0 5.0 0.00 0.00 0.00 26 1016.4
20260830230714 78 348 1.0 4.0 0.00 0.00 0.00 26 1016.5
20260830225714 77 264 1.0 5.0 0.00 0.00 0.00 28 1016.7
20260830224734 76 175 3.0 6.0 0.00 0.00 0.00 28 1016.8
20260830223714 78 223 2.0 5.0 0.00 0.00 0.00 28 1016.9
20260830222714 78 245 2.0 5.0 0.00 0.00 0.00 28 1017.1
20260830221715 76 205 2.0 5.0 0.00 0.00 0.00 28 1017.2
20260830220714 75 160 4.0 8.0 0.00 0.00 0.00 28 1017.4
20260830215714 75 170 4.0 8.0 0.00 0.00 0.00 29 1017.5
20260830214714 74 152 5.0 7.0 0.00 0.00 0.00 31 1017.7
20260830213714 74 169 4.0 8.0 0.00 0.00 0.00 32 1018.0
20260830212715 75 332 1.0 4.0 0.00 0.00 0.00 30 1018.1
20260830211715 73 304 1.0 5.0 0.00 0.00 0.00 34 1018.3
20260830210714 73 187 3.0 7.0 0.00 0.00 0.00 35 1018.4
20260830205715 74 234 2.0 6.0 0.00 0.00 0.00 35 1018.5
20260830204714 72 233 2.0 5.0 0.00 0.00 0.00 38 1018.6
20260830203716 72 223 2.0 5.0 0.00 0.00 0.00 37 1018.8
20260830202715 72 218 4.0 8.0 0.00 0.00 0.00 40 1018.8
20260830201718 70 205 2.0 7.0 0.00 0.00 0.00 41 1019.0
20260830200714 70 228 2.0 6.0 0.00 0.00 0.00 44 1019.1
20260830195735 69 212 4.0 8.0 0.00 0.00 0.00 43 1019.2
20260830194715 68 146 1.0 5.0 0.00 0.00 0.00 47 1019.4
20260830193715 69 160 3.0 8.0 0.00 0.00 0.00 45 1019.5
20260830192714 68 247 2.0 5.0 0.00 0.00 0.00 47 1019.7
20260830191714 66 167 4.0 9.0 0.00 0.00 0.00 50 1019.8
20260830190714 66 178 4.0 8.0 0.00 0.00 0.00 53 1019.9
20260830185715 66 162 1.0 5.0 0.00 0.00 0.00 53 1020.0
20260830184714 65 244 1.0 4.0 0.00 0.00 0.00 54 1020.1
20260830183735 64 120 5.0 10.0 0.00 0.00 0.00 55 1020.1
20260830182714 63 142 5.0 9.0 0.00 0.00 0.00 56 1020.2
20260830181715 64 163 4.0 11.0 0.00 0.00 0.00 59 1020.2
20260830180755 62 159 4.0 9.0 0.00 0.00 0.00 59 1020.3
20260830175715 61 100 2.0 6.0 0.00 0.00 0.00 62 1020.5
20260830174715 61 164 5.0 8.0 0.00 0.00 0.00 61 1020.6
20260830173715 61 153 2.0 6.0 0.00 0.00 0.00 62 1020.6
20260830172715 60 147 4.0 8.0 0.00 0.00 0.00 63 1020.6
20260830171715 59 151 5.0 8.0 0.00 0.00 0.00 63 1020.7
20260830170715 59 145 4.0 9.0 0.00 0.00 0.00 63 1020.7
20260830165715 58 113 4.0 10.0 0.00 0.00 0.00 65 1020.7
20260830164715 57 142 5.0 9.0 0.00 0.00 0.00 66 1020.8
20260830163715 57 120 4.0 8.0 0.00 0.00 0.00 67 1020.8
20260830162655 55 103 6.0 12.0 0.00 0.00 0.00 69 1021.0
20260830161614 54 128 5.0 8.0 0.00 0.00 0.00 72 1021.0
20260830160635 53 61 7.0 10.0 0.00 0.00 0.00 75 1021.2
20260830155635 53 93 5.0 8.0 0.00 0.00 0.00 76 1021.3
20260830154615 51 85 5.0 8.0 0.00 0.00 0.00 79 1021.3
20260830153615 49 99 6.0 9.0 0.00 0.00 0.00 82 1021.4
20260830152615 48 137 6.0 8.0 0.00 0.00 0.00 84 1021.6
20260830151615 47 149 4.0 7.0 0.00 0.00 0.00 85 1021.6
20260830150615 47 153 4.0 7.0 0.00 0.00 0.00 86 1021.6
20260830145615 46 147 3.0 5.0 0.00 0.00 0.00 88 1021.6
20260830144615 44 178 3.0 6.0 0.00 0.00 0.00 90 1021.7
20260830143615 43 205 3.0 3.0 0.00 0.00 0.00 91 1021.7
20260830142615 42 96 3.0 5.0 0.00 0.00 0.00 91 1021.6
20260830141615 41 151 3.0 6.0 0.00 0.00 0.00 93 1021.5
20260830140615 37 203 0.0 3.0 0.00 0.00 0.00 98 1021.6
20260830135615 37 0.0 0.0 0.00 0.00 0.00 98 1021.6
20260830134615 37 0.0 0.0 0.00 0.00 0.00 98 1021.5
20260830133655 37 220 2.0 3.0 0.00 0.00 0.00 97 1021.5
20260830132635 38 222 0.0 1.0 0.00 0.00 0.00 96 1021.4
20260830131615 38 192 3.0 3.0 0.00 0.00 0.00 96 1021.4
20260830130615 36 0.0 1.0 0.00 0.00 0.00 100 1021.4
20260830125635 36 205 2.0 3.0 0.00 0.00 0.00 99 1021.4
20260830124615 36 0.0 0.0 0.00 0.00 0.00 100 1021.4
20260830123635 36 0.0 0.0 0.00 0.00 0.00 100 1021.4
20260830122615 36 0.0 0.0 0.00 0.00 0.00 100 1021.4
20260830121635 35 0.0 0.0 0.00 0.00 0.00 100 1021.4
20260830120615 36 0.0 0.0 0.00 0.00 0.00 100 1021.5
20260830115615 36 0.0 0.0 0.00 0.00 0.00 100 1021.3
20260830114615 37 0.0 0.0 0.00 0.00 0.00 100 1021.3
20260830113615 37 0.0 0.0 0.00 0.00 0.00 99 1021.2
20260830112635 38 0.0 0.0 0.00 0.00 0.00 99 1021.1
20260830111635 38 0.0 0.0 0.00 0.00 0.00 96 1021.1
20260830110615 39 0.0 0.0 0.00 0.00 0.00 96 1021.1
20260830105615 40 0.0 0.0 0.00 0.00 0.00 92 1021.1
20260830104615 41 0.0 0.0 0.00 0.00 0.00 94 1021.1
20260830103615 41 0.0 0.0 0.00 0.00 0.00 92 1021.0
20260830102615 42 191 1.0 3.0 0.00 0.00 0.00 91 1021.0
20260830101615 42 188 2.0 3.0 0.00 0.00 0.00 90 1020.9
20260830100615 44 186 4.0 5.0 0.00 0.00 0.00 89 1020.8
20260830095615 43 199 2.0 3.0 0.00 0.00 0.00 90 1020.7
20260830094615 46 164 0.0 3.0 0.00 0.00 0.00 87 1020.6
20260830093615 47 200 0.0 3.0 0.00 0.00 0.00 89 1020.5
20260830092615 47 0.0 1.0 0.00 0.00 0.00 88 1020.5
20260830091615 47 0.0 1.0 0.00 0.00 0.00 86 1020.4
20260830090615 48 0.0 0.0 0.00 0.00 0.00 86 1020.4
20260830085615 49 0.0 0.0 0.00 0.00 0.00 84 1020.4
20260830084618 49 209 0.0 2.0 0.00 0.00 0.00 82 1020.4
20260830083637 50 142 1.0 3.0 0.00 0.00 0.00 81 1020.5
20260830082615 50 135 0.0 2.0 0.00 0.00 0.00 81 1020.4
20260830081655 50 65 1.0 3.0 0.00 0.00 0.00 82 1020.2
20260830080615 49 0.0 2.0 0.00 0.00 0.00 86 1020.2
20260830075616 45 0.0 0.0 0.00 0.00 0.00 88 1020.3
20260830074615 45 155 1.0 3.0 0.00 0.00 0.00 86 1020.3
20260830073655 46 203 0.0 2.0 0.00 0.00 0.00 85 1020.3
20260830072615 46 178 1.0 2.0 0.00 0.00 0.00 84 1020.3
20260830071615 46 0.0 0.0 0.00 0.00 0.00 84 1020.3
20260830070615 46 180 0.0 2.0 0.00 0.00 0.00 84 1020.3
20260830065615 47 0.0 1.0 0.00 0.00 0.00 82 1020.2
20260830064615 48 0.0 0.0 0.00 0.00 0.00 80 1020.3
20260830063615 50 0.0 0.0 0.00 0.00 0.00 79 1020.2
20260830062635 49 0.0 0.0 0.00 0.00 0.00 82 1020.2
20260830061615 51 0.0 0.0 0.00 0.00 0.00 76 1020.1
20260830060615 52 0.0 1.0 0.00 0.00 0.00 76 1020.0
20260830055615 50 352 0.0 2.0 0.00 0.00 0.00 79 1020.2
20260830054635 48 0.0 0.0 0.00 0.00 0.00 80 1020.3
20260830053635 48 0.0 0.0 0.00 0.00 0.00 80 1020.2
20260830052636 48 0.0 0.0 0.00 0.00 0.00 78 1020.2
20260830051615 49 0.0 0.0 0.00 0.00 0.00 76 1020.2
20260830050615 50 0.0 0.0 0.00 0.00 0.00 74 1020.2
20260830045615 51 0.0 0.0 0.00 0.00 0.00 73 1020.2